10/05/2024 22:15:00,0.135
10/05/2024 22:30:00,0.135
10/05/2024 22:45:00,0.135
10/05/2024 23:00:00,0.134
10/05/2024 23:15:00,0.135
10/05/2024 23:30:00,0.135
10/05/2024 23:45:00,0.135
11/05/2024 00:00:00,0.135
11/05/2024 00:15:00,0.135
11/05/2024 00:30:00,0.135
11/05/2024 00:45:00,0.134
11/05/2024 01:00:00,0.134
11/05/2024 01:15:00,0.134
11/05/2024 01:30:00,0.133
11/05/2024 01:45:00,0.133
11/05/2024 02:00:00,0.132
11/05/2024 02:15:00,0.132
11/05/2024 02:30:00,0.132
11/05/2024 02:45:00,0.136
11/05/2024 03:00:00,0.138
11/05/2024 03:15:00,0.139
11/05/2024 03:30:00,0.138
11/05/2024 03:45:00,0.138
11/05/2024 04:00:00,0.138
11/05/2024 04:15:00,0.137
11/05/2024 04:30:00,0.137
11/05/2024 04:45:00,0.136
11/05/2024 05:00:00,0.136
11/05/2024 05:15:00,0.136
11/05/2024 05:30:00,0.135
11/05/2024 05:45:00,0.135
11/05/2024 06:00:00,0.135
11/05/2024 06:15:00,0.135
11/05/2024 06:30:00,0.135
11/05/2024 06:45:00,0.135
11/05/2024 07:00:00,0.135
11/05/2024 07:15:00,0.135
11/05/2024 07:30:00,0.135
11/05/2024 07:45:00,0.135
11/05/2024 08:00:00,0.134
11/05/2024 08:15:00,0.134
11/05/2024 08:30:00,0.133
11/05/2024 08:45:00,0.133
11/05/2024 09:00:00,0.133
11/05/2024 09:15:00,0.133
11/05/2024 09:30:00,0.133
11/05/2024 09:45:00,0.133
11/05/2024 10:00:00,0.133
11/05/2024 10:15:00,0.133
11/05/2024 10:30:00,0.133
11/05/2024 10:45:00,0.133
11/05/2024 11:00:00,0.132
11/05/2024 11:15:00,0.132
11/05/2024 11:30:00,0.132
11/05/2024 11:45:00,0.137
11/05/2024 12:00:00,0.139
11/05/2024 12:15:00,0.139
11/05/2024 12:30:00,0.138
11/05/2024 12:45:00,0.136
11/05/2024 13:00:00,0.139
11/05/2024 13:15:00,0.139
11/05/2024 13:30:00,0.137
11/05/2024 13:45:00,0.137
11/05/2024 14:00:00,0.137
11/05/2024 14:15:00,0.137
11/05/2024 14:30:00,0.137
11/05/2024 14:45:00,0.137
11/05/2024 15:00:00,0.136
11/05/2024 15:15:00,0.136
11/05/2024 15:30:00,0.149
11/05/2024 15:45:00,0.155
11/05/2024 16:00:00,0.149
11/05/2024 16:15:00,0.155
11/05/2024 16:30:00,0.148
11/05/2024 16:45:00,0.16
11/05/2024 17:00:00,0.157
11/05/2024 17:15:00,0.157
11/05/2024 17:30:00,0.155
11/05/2024 17:45:00,0.164
11/05/2024 18:00:00,0.159
11/05/2024 18:15:00,0.157
11/05/2024 18:30:00,0.161
11/05/2024 18:45:00,0.16
11/05/2024 19:00:00,0.16
11/05/2024 19:15:00,0.154
11/05/2024 19:30:00,0.158
11/05/2024 19:45:00,0.16
11/05/2024 20:00:00,0.161
11/05/2024 20:15:00,0.158
11/05/2024 20:30:00,0.162
11/05/2024 20:45:00,0.159
11/05/2024 21:00:00,0.158
11/05/2024 21:15:00,0.151
11/05/2024 21:30:00,0.145
11/05/2024 21:45:00,0.146
11/05/2024 22:00:00,0.144
11/05/2024 22:15:00,0.139
11/05/2024 22:30:00,0.138
11/05/2024 22:45:00,0.137
11/05/2024 23:00:00,0.136
11/05/2024 23:15:00,0.136
11/05/2024 23:30:00,0.136
11/05/2024 23:45:00,0.136
12/05/2024 00:00:00,0.136
12/05/2024 00:15:00,0.136
12/05/2024 00:30:00,0.136
12/05/2024 00:45:00,0.136
12/05/2024 01:00:00,0.135
12/05/2024 01:15:00,0.135
12/05/2024 01:30:00,0.135
12/05/2024 01:45:00,0.134
12/05/2024 02:00:00,0.134
12/05/2024 02:15:00,0.134
12/05/2024 02:30:00,0.134
12/05/2024 02:45:00,0.134
12/05/2024 03:00:00,0.134
12/05/2024 03:15:00,0.134
12/05/2024 03:30:00,0.133
12/05/2024 03:45:00,0.133
12/05/2024 04:00:00,0.133
12/05/2024 04:15:00,0.133
12/05/2024 04:30:00,0.133
12/05/2024 04:45:00,0.132
12/05/2024 05:00:00,0.132
12/05/2024 05:15:00,0.132
12/05/2024 05:30:00,0.132
12/05/2024 05:45:00,0.133
12/05/2024 06:00:00,0.133
12/05/2024 06:15:00,0.133
12/05/2024 06:30:00,0.133
12/05/2024 06:45:00,0.133
12/05/2024 07:00:00,0.133
12/05/2024 07:15:00,0.133
12/05/2024 07:30:00,0.133
12/05/2024 07:45:00,0.133
12/05/2024 08:00:00,0.133
12/05/2024 08:15:00,0.133
12/05/2024 08:30:00,0.133
12/05/2024 08:45:00,0.134
12/05/2024 09:00:00,0.134
12/05/2024 09:15:00,0.134
12/05/2024 09:30:00,0.134
12/05/2024 09:45:00,0.135
12/05/2024 10:00:00,0.135
12/05/2024 10:15:00,0.135
12/05/2024 10:30:00,0.135
12/05/2024 10:45:00,0.135
12/05/2024 11:00:00,0.135
12/05/2024 11:15:00,0.135
12/05/2024 11:30:00,0.145
12/05/2024 11:45:00,0.147
12/05/2024 12:00:00,0.144
12/05/2024 12:15:00,0.14
12/05/2024 12:30:00,0.139
12/05/2024 12:45:00,0.142
12/05/2024 13:00:00,0.14
12/05/2024 13:15:00,0.139
12/05/2024 13:30:00,0.139
12/05/2024 13:45:00,0.139
12/05/2024 14:00:00,0.14
12/05/2024 14:15:00,0.14
12/05/2024 14:30:00,0.139
12/05/2024 14:45:00,0.138
12/05/2024 15:00:00,0.149
12/05/2024 15:15:00,0.156
12/05/2024 15:30:00,0.157
12/05/2024 15:45:00,0.165
12/05/2024 16:00:00,0.154
12/05/2024 16:15:00,0.148
12/05/2024 16:30:00,0.166
12/05/2024 16:45:00,0.156
12/05/2024 17:00:00,0.145
12/05/2024 17:15:00,0.139
12/05/2024 17:30:00,0.138
12/05/2024 17:45:00,0.137
12/05/2024 18:00:00,0.137
12/05/2024 18:15:00,0.137
12/05/2024 18:30:00,0.136
12/05/2024 18:45:00,0.145
12/05/2024 19:00:00,0.144
12/05/2024 19:15:00,0.14
12/05/2024 19:30:00,0.14
12/05/2024 19:45:00,0.14
12/05/2024 20:00:00,0.139
12/05/2024 20:15:00,0.234
12/05/2024 20:30:00,0.638
12/05/2024 20:45:00,0.659
12/05/2024 21:00:00,0.667
12/05/2024 21:15:00,0.668
12/05/2024 21:30:00,0.651
12/05/2024 21:45:00,0.625
12/05/2024 22:00:00,0.577
12/05/2024 22:15:00,0.549
12/05/2024 22:30:00,0.534
12/05/2024 22:45:00,0.516
12/05/2024 23:00:00,0.503
12/05/2024 23:15:00,0.548
12/05/2024 23:30:00,0.548
12/05/2024 23:45:00,0.551
13/05/2024 00:00:00,0.544
13/05/2024 00:15:00,0.533
13/05/2024 00:30:00,0.519
13/05/2024 00:45:00,0.506
13/05/2024 01:00:00,0.497
13/05/2024 01:15:00,0.484
13/05/2024 01:30:00,0.471
13/05/2024 01:45:00,0.46
13/05/2024 02:00:00,0.449
13/05/2024 02:15:00,0.436
13/05/2024 02:30:00,0.424
13/05/2024 02:45:00,0.411
13/05/2024 03:00:00,0.398
13/05/2024 03:15:00,0.386
13/05/2024 03:30:00,0.373
13/05/2024 03:45:00,0.362
13/05/2024 04:00:00,0.349
13/05/2024 04:15:00,0.335
13/05/2024 04:30:00,0.325
13/05/2024 04:45:00,0.317
13/05/2024 05:00:00,0.31
13/05/2024 05:15:00,0.302
13/05/2024 05:30:00,0.296
13/05/2024 05:45:00,0.291
13/05/2024 06:00:00,0.286
13/05/2024 06:15:00,0.281
13/05/2024 06:30:00,0.279
13/05/2024 06:45:00,0.277
13/05/2024 07:00:00,0.277
13/05/2024 07:15:00,0.276
13/05/2024 07:30:00,0.276
13/05/2024 07:45:00,0.276
13/05/2024 08:00:00,0.277
13/05/2024 08:15:00,0.277
13/05/2024 08:30:00,0.277
13/05/2024 08:45:00,0.275
13/05/2024 09:00:00,0.268
13/05/2024 09:15:00,0.266
13/05/2024 09:30:00,0.266
13/05/2024 09:45:00,0.258
13/05/2024 10:00:00,0.255
13/05/2024 10:15:00,0.253
13/05/2024 10:30:00,0.236
13/05/2024 10:45:00,0.222
13/05/2024 11:00:00,0.214
13/05/2024 11:15:00,0.212
13/05/2024 11:30:00,0.209
13/05/2024 11:45:00,0.219
13/05/2024 12:00:00,0.225
13/05/2024 12:15:00,0.225
13/05/2024 12:30:00,0.225
13/05/2024 12:45:00,0.218
13/05/2024 13:00:00,0.208
13/05/2024 13:15:00,0.201
13/05/2024 13:30:00,0.197
13/05/2024 13:45:00,0.193
13/05/2024 14:00:00,0.191
13/05/2024 14:15:00,0.196
13/05/2024 14:30:00,0.204
13/05/2024 14:45:00,0.209
13/05/2024 15:00:00,0.209
13/05/2024 15:15:00,0.203
13/05/2024 15:30:00,0.193
13/05/2024 15:45:00,0.191
13/05/2024 16:00:00,0.196
13/05/2024 16:15:00,0.192
13/05/2024 16:30:00,0.201
13/05/2024 16:45:00,0.198
13/05/2024 17:00:00,0.193
13/05/2024 17:15:00,0.201
13/05/2024 17:30:00,0.198
13/05/2024 17:45:00,0.198
13/05/2024 18:00:00,0.192
13/05/2024 18:15:00,0.188
13/05/2024 18:30:00,0.181
13/05/2024 18:45:00,0.177
13/05/2024 19:00:00,0.175
13/05/2024 19:15:00,0.174
13/05/2024 19:30:00,0.174
13/05/2024 19:45:00,0.177
13/05/2024 20:00:00,0.178
13/05/2024 20:15:00,0.177
13/05/2024 20:30:00,0.176
13/05/2024 20:45:00,0.175
13/05/2024 21:00:00,0.175
13/05/2024 21:15:00,0.175
13/05/2024 21:30:00,0.175
13/05/2024 21:45:00,0.175
13/05/2024 22:00:00,0.175
13/05/2024 22:15:00,0.177
13/05/2024 22:30:00,0.179
13/05/2024 22:45:00,0.179
13/05/2024 23:00:00,0.178
13/05/2024 23:15:00,0.177
13/05/2024 23:30:00,0.177
13/05/2024 23:45:00,0.177
14/05/2024 00:00:00,0.177
14/05/2024 00:15:00,0.177
14/05/2024 00:30:00,0.178
14/05/2024 00:45:00,0.179
14/05/2024 01:00:00,0.179
14/05/2024 01:15:00,0.179
14/05/2024 01:30:00,0.179
14/05/2024 01:45:00,0.179
14/05/2024 02:00:00,0.179
14/05/2024 02:15:00,0.179
14/05/2024 02:30:00,0.179
14/05/2024 02:45:00,0.179
14/05/2024 03:00:00,0.179
14/05/2024 03:15:00,0.181
14/05/2024 03:30:00,0.183
14/05/2024 03:45:00,0.185
14/05/2024 04:00:00,0.186
14/05/2024 04:15:00,0.186
14/05/2024 04:30:00,0.186
14/05/2024 04:45:00,0.185
14/05/2024 05:00:00,0.183
14/05/2024 05:15:00,0.183
14/05/2024 05:30:00,0.183
14/05/2024 05:45:00,0.183
14/05/2024 06:00:00,0.183
14/05/2024 06:15:00,0.185
14/05/2024 06:30:00,0.186
14/05/2024 06:45:00,0.188
14/05/2024 07:00:00,0.189
14/05/2024 07:15:00,0.19
14/05/2024 07:30:00,0.19
14/05/2024 07:45:00,0.19
14/05/2024 08:00:00,0.19
14/05/2024 08:15:00,0.19
14/05/2024 08:30:00,0.19
14/05/2024 08:45:00,0.191
14/05/2024 09:00:00,0.192
14/05/2024 09:15:00,0.193
14/05/2024 09:30:00,0.196
14/05/2024 09:45:00,0.197
14/05/2024 10:00:00,0.198
14/05/2024 10:15:00,0.198
14/05/2024 10:30:00,0.199
14/05/2024 10:45:00,0.199
14/05/2024 11:00:00,0.199
14/05/2024 11:15:00,0.199
14/05/2024 11:30:00,0.199
14/05/2024 11:45:00,0.2
14/05/2024 12:00:00,0.199
14/05/2024 12:15:00,0.199
14/05/2024 12:30:00,0.199
14/05/2024 12:45:00,0.199
14/05/2024 13:00:00,0.198
14/05/2024 13:15:00,0.197
14/05/2024 13:30:00,0.197
14/05/2024 13:45:00,0.197
14/05/2024 14:00:00,0.196
14/05/2024 14:15:00,0.194
14/05/2024 14:30:00,0.193
14/05/2024 14:45:00,0.192
14/05/2024 15:00:00,0.191
14/05/2024 15:15:00,0.19
14/05/2024 15:30:00,0.19
14/05/2024 15:45:00,0.19
14/05/2024 16:00:00,0.189
14/05/2024 16:15:00,0.187
14/05/2024 16:30:00,0.187
14/05/2024 16:45:00,0.185
14/05/2024 17:00:00,0.185
14/05/2024 17:15:00,0.183
14/05/2024 17:30:00,0.183
14/05/2024 17:45:00,0.183
14/05/2024 18:00:00,0.183
14/05/2024 18:15:00,0.183
14/05/2024 18:30:00,0.185
14/05/2024 18:45:00,0.189
14/05/2024 19:00:00,0.194
14/05/2024 19:15:00,0.21
14/05/2024 19:30:00,0.212
14/05/2024 19:45:00,0.208
14/05/2024 20:00:00,0.208
14/05/2024 20:15:00,0.208
14/05/2024 20:30:00,0.208
14/05/2024 20:45:00,0.212
14/05/2024 21:00:00,0.285
14/05/2024 21:15:00,0.302
14/05/2024 21:30:00,0.3
14/05/2024 21:45:00,0.302
14/05/2024 22:00:00,0.325
14/05/2024 22:15:00,0.332
14/05/2024 22:30:00,0.331
14/05/2024 22:45:00,0.323
14/05/2024 23:00:00,0.314
14/05/2024 23:15:00,0.307
14/05/2024 23:30:00,0.307
14/05/2024 23:45:00,0.31
15/05/2024 00:00:00,0.314
15/05/2024 00:15:00,0.311
15/05/2024 00:30:00,0.306
15/05/2024 00:45:00,0.299
15/05/2024 01:00:00,0.292
15/05/2024 01:15:00,0.287
15/05/2024 01:30:00,0.281
15/05/2024 01:45:00,0.277
15/05/2024 02:00:00,0.275
15/05/2024 02:15:00,0.27
15/05/2024 02:30:00,0.266
15/05/2024 02:45:00,0.262
15/05/2024 03:00:00,0.258
15/05/2024 03:15:00,0.255
15/05/2024 03:30:00,0.255
15/05/2024 03:45:00,0.247
15/05/2024 04:00:00,0.244
15/05/2024 04:15:00,0.241
15/05/2024 04:30:00,0.237
15/05/2024 04:45:00,0.234
15/05/2024 05:00:00,0.232
15/05/2024 05:15:00,0.229
15/05/2024 05:30:00,0.229
15/05/2024 05:45:00,0.223
15/05/2024 06:00:00,0.221
15/05/2024 06:15:00,0.22
15/05/2024 06:30:00,0.218
15/05/2024 06:45:00,0.214
15/05/2024 07:00:00,0.212
15/05/2024 07:15:00,0.212
15/05/2024 07:30:00,0.209
15/05/2024 07:45:00,0.208
15/05/2024 08:00:00,0.205
15/05/2024 08:15:00,0.204
15/05/2024 08:30:00,0.203
15/05/2024 08:45:00,0.201
15/05/2024 09:00:00,0.201
15/05/2024 09:15:00,0.199
15/05/2024 09:30:00,0.198
15/05/2024 09:45:00,0.197
15/05/2024 10:00:00,0.196
15/05/2024 10:15:00,0.196
15/05/2024 10:30:00,0.193
15/05/2024 10:45:00,0.193
15/05/2024 11:00:00,0.192
15/05/2024 11:15:00,0.191
15/05/2024 11:30:00,0.191
15/05/2024 11:45:00,0.19
15/05/2024 12:00:00,0.19
15/05/2024 12:15:00,0.19
15/05/2024 12:30:00,0.189
15/05/2024 12:45:00,0.188
15/05/2024 13:00:00,0.187
15/05/2024 13:15:00,0.186
15/05/2024 13:30:00,0.186
15/05/2024 13:45:00,0.185
15/05/2024 14:00:00,0.185
15/05/2024 14:15:00,0.183
15/05/2024 14:30:00,0.183
15/05/2024 14:45:00,0.183
15/05/2024 15:00:00,0.182
15/05/2024 15:15:00,0.181
15/05/2024 15:30:00,0.181
15/05/2024 15:45:00,0.181
15/05/2024 16:00:00,0.179
15/05/2024 16:15:00,0.178
15/05/2024 16:30:00,0.178
15/05/2024 16:45:00,0.178
15/05/2024 17:00:00,0.178
15/05/2024 17:15:00,0.178
15/05/2024 17:30:00,0.178
15/05/2024 17:45:00,0.178
15/05/2024 18:00:00,0.178
15/05/2024 18:15:00,0.177
15/05/2024 18:30:00,0.176
15/05/2024 18:45:00,0.175
15/05/2024 19:00:00,0.174
15/05/2024 19:15:00,0.172
